Orbital Elements at Epoch 2459200.5 (2020-Dec-17.0) TDB
Reference: JPL 19 (heliocentric ecliptic J2000)
Element | Value | Uncertainty (1-sigma) | Units |
e | .1674269662661375 | 3.2884e-08 | |
a | 2.357709088347897 | 1.0544e-08 | au |
q | 1.962965008347708 | 7.7899e-08 | au |
i | 6.275841332345659 | 3.7676e-06 | deg |
node | 111.3298637520632 | 4.3596e-05 | deg |
peri | 179.9627909334762 | 4.6054e-05 | deg |
M | 113.7104768183469 | 1.6195e-05 | deg |
tp | 2458782.831489862205 (2019-Oct-26.33148986) | 5.867e-05 | TDB |
period | 1322.311433886679 3.62 | 8.8705e-06 2.429e-08 | d yr |
n | .2722505385451063 | 1.8264e-09 | deg/d |
Q | 2.752453168348086 | 1.231e-08 | au |
|
| | Orbit Determination Parameters
Additional Information
|